Location: El Álamo
(40.2307°N, 3.9945°W)
Time: 04:18:53
(UTC+00:00)

DELTA 2 R/B (1) - Pass Details

Date: 19 May 2025
Orbit: 787 x 800 km, 39.6° (Epoch: 23 June)

Event Time Altitude Azimuth Distance (km) Brightness Sun altitude
Rises 22:09:45 0° 258° (WSW) 3,270 7.0 -23.4°
Reaches altitude 10° 22:12:13 10° 257° (WSW) 2,344 6.2 -23.6°
Maximum altitude 22:17:45 80° 172° (S) 805 3.4 -24.1°
Enters shadow 22:19:07 52° 96° (E) 971 3.7 -24.3°
